TimeMST,TemperatureF,Dew PointF,Humidity,Sea Level PressureIn,VisibilityMPH,Wind Direction,Wind SpeedMPH,Gust SpeedMPH,PrecipitationIn,Events,Conditions,WindDirDegrees,DateUTC
12:53 AM,19.9,15.1,81,30.15,10.0,North,24.2,31.1,N/A,,Overcast,10,2013-11-21 07:53:00
1:31 AM,19.4,14.0,80,30.15,10.0,North,23.0,31.1,N/A,,Overcast,360,2013-11-21 08:31:00
1:53 AM,19.0,12.9,77,30.17,10.0,North,28.8,-,N/A,,Overcast,360,2013-11-21 08:53:00
2:42 AM,17.6,10.4,73,30.16,9.0,North,25.3,-,0.00,,Overcast,10,2013-11-21 09:42:00
2:53 AM,17.1,10.0,74,30.19,4.0,NNE,24.2,35.7,0.00,Snow,Light Snow,20,2013-11-21 09:53:00
3:03 AM,15.8,10.4,79,30.17,2.0,North,23.0,31.1,0.00,Snow,Light Snow,10,2013-11-21 10:03:00
3:10 AM,15.8,10.4,79,30.16,1.5,North,20.7,34.5,0.00,Snow,Light Snow,10,2013-11-21 10:10:00
3:40 AM,15.8,10.4,79,30.17,1.8,North,20.7,31.1,0.00,Snow,Light Snow,10,2013-11-21 10:40:00
3:49 AM,15.8,10.4,79,30.17,2.0,NNE,18.4,-,0.00,Snow,Light Snow,20,2013-11-21 10:49:00
3:53 AM,16.0,10.9,81,30.22,2.0,NNE,18.4,25.3,0.00,Snow,Light Snow,20,2013-11-21 10:53:00
4:17 AM,15.8,10.4,79,30.19,3.0,North,19.6,-,0.00,Snow,Light Snow,10,2013-11-21 11:17:00
4:24 AM,15.8,10.4,79,30.19,3.0,North,19.6,24.2,0.00,Snow,Light Snow,10,2013-11-21 11:24:00
4:45 AM,15.8,10.4,79,30.19,1.8,North,15.0,-,0.00,Snow,Light Snow,360,2013-11-21 11:45:00
4:53 AM,15.1,10.9,84,30.28,1.2,North,15.0,-,0.00,Snow,Light Snow,360,2013-11-21 11:53:00
5:00 AM,15.8,10.4,79,30.20,1.2,North,23.0,-,0.00,Snow,Light Snow,350,2013-11-21 12:00:00
5:14 AM,14.0,10.4,86,30.22,1.2,North,21.9,28.8,0.00,Snow,Light Snow,360,2013-11-21 12:14:00
5:33 AM,14.0,8.6,79,30.22,2.0,North,21.9,-,0.00,Snow,Light Snow,350,2013-11-21 12:33:00
5:42 AM,12.2,8.6,85,30.23,4.0,North,20.7,-,0.00,Snow,Light Snow,350,2013-11-21 12:42:00
5:53 AM,12.9,8.1,81,30.34,4.0,North,20.7,-,0.00,Snow,Light Snow,350,2013-11-21 12:53:00
6:06 AM,12.2,8.6,85,30.24,2.0,North,19.6,28.8,0.00,Snow,Light Snow,360,2013-11-21 13:06:00
6:17 AM,12.2,8.6,85,30.25,4.0,North,18.4,26.5,0.00,Snow,Light Snow,360,2013-11-21 13:17:00
6:28 AM,12.2,8.6,85,30.26,2.0,North,21.9,27.6,0.00,Snow,Light Snow,350,2013-11-21 13:28:00
6:34 AM,12.2,8.6,85,30.26,1.2,North,20.7,28.8,0.00,Snow,Light Snow,10,2013-11-21 13:34:00
6:43 AM,12.2,8.6,85,30.26,1.0,North,16.1,-,0.00,Snow,Light Snow,10,2013-11-21 13:43:00
6:53 AM,12.9,8.1,81,30.38,1.2,North,13.8,-,0.00,Snow,Light Snow,360,2013-11-21 13:53:00
7:00 AM,12.2,8.6,85,30.27,0.8,North,12.7,-,0.00,Snow,Light Snow,360,2013-11-21 14:00:00
7:21 AM,12.2,8.6,85,30.28,0.5,North,16.1,-,0.00,Snow,Snow,350,2013-11-21 14:21:00
7:32 AM,12.2,8.6,85,30.28,0.5,North,17.3,-,0.01,Snow,Snow,10,2013-11-21 14:32:00
7:53 AM,12.0,7.0,80,30.40,0.5,North,18.4,-,0.01,Snow,Snow,10,2013-11-21 14:53:00
8:05 AM,12.2,8.6,85,30.30,0.5,North,18.4,-,0.00,Snow,Snow,350,2013-11-21 15:05:00
8:23 AM,12.2,6.8,79,30.31,0.8,North,18.4,-,0.00,Snow,Light Snow,360,2013-11-21 15:23:00
8:32 AM,12.2,6.8,79,30.31,1.0,North,20.7,-,0.00,Snow,Light Snow,360,2013-11-21 15:32:00
8:42 AM,12.2,6.8,79,30.31,2.0,North,18.4,-,0.00,Snow,Light Snow,360,2013-11-21 15:42:00
8:53 AM,12.9,7.0,77,30.46,1.8,North,17.3,-,0.00,Snow,Light Snow,360,2013-11-21 15:53:00
9:03 AM,12.2,6.8,79,30.32,2.5,North,18.4,26.5,0.00,Snow,Light Snow,10,2013-11-21 16:03:00
9:09 AM,12.2,8.6,85,30.32,1.5,North,18.4,-,0.00,Snow,Light Snow,360,2013-11-21 16:09:00
9:20 AM,12.2,6.8,79,30.33,1.0,North,20.7,-,0.00,Snow,Light Snow,360,2013-11-21 16:20:00
9:27 AM,12.2,6.8,79,30.34,1.2,North,17.3,-,0.00,Snow,Light Snow,10,2013-11-21 16:27:00
9:35 AM,12.2,6.8,79,30.34,0.8,North,23.0,-,0.00,Snow,Light Snow,360,2013-11-21 16:35:00
9:53 AM,12.9,7.0,77,30.52,0.5,North,17.3,-,0.00,Snow,Snow,360,2013-11-21 16:53:00
10:32 AM,12.2,8.6,85,30.37,1.0,North,18.4,-,0.00,Snow,Light Snow,360,2013-11-21 17:32:00
10:39 AM,12.2,6.8,79,30.37,2.0,North,19.6,-,0.00,Snow,Light Snow,350,2013-11-21 17:39:00
10:53 AM,12.9,7.0,77,30.54,3.0,North,18.4,-,0.00,Snow,Light Snow,10,2013-11-21 17:53:00
11:04 AM,14.0,6.8,73,30.37,1.5,North,18.4,-,0.00,Snow,Light Snow,360,2013-11-21 18:04:00
11:21 AM,12.2,6.8,79,30.37,0.8,North,20.7,-,0.00,Snow,Light Snow,350,2013-11-21 18:21:00
11:32 AM,12.2,6.8,79,30.37,1.0,North,19.6,-,0.00,Snow,Light Snow,350,2013-11-21 18:32:00
11:41 AM,12.2,6.8,79,30.37,1.5,North,20.7,25.3,0.00,Snow,Light Snow,360,2013-11-21 18:41:00
11:53 AM,12.9,7.0,77,30.55,1.5,North,18.4,-,0.00,Snow,Light Snow,350,2013-11-21 18:53:00
12:14 PM,12.2,6.8,79,30.37,2.5,North,21.9,-,0.00,Snow,Light Snow,350,2013-11-21 19:14:00
12:37 PM,12.2,6.8,79,30.36,1.0,North,19.6,-,0.00,Snow,Light Snow,360,2013-11-21 19:37:00
12:45 PM,12.2,6.8,79,30.36,0.8,North,20.7,-,0.00,Snow,Light Snow,360,2013-11-21 19:45:00
12:49 PM,12.2,6.8,79,30.36,1.2,North,18.4,-,0.00,Snow,Light Snow,360,2013-11-21 19:49:00
12:53 PM,12.9,7.0,77,30.56,1.5,North,18.4,-,0.00,Snow,Light Snow,350,2013-11-21 19:53:00
1:00 PM,12.2,6.8,79,30.37,2.0,North,18.4,-,0.00,Snow,Light Snow,350,2013-11-21 20:00:00
1:16 PM,12.2,6.8,79,30.37,5.0,North,19.6,-,0.00,,Overcast,350,2013-11-21 20:16:00
1:46 PM,12.2,6.8,79,30.39,7.0,North,21.9,-,0.00,,Overcast,350,2013-11-21 20:46:00
1:53 PM,12.9,7.0,77,30.58,6.0,NNW,21.9,-,0.00,Snow,Light Snow,340,2013-11-21 20:53:00
2:02 PM,12.2,6.8,79,30.39,6.0,North,23.0,-,0.00,,Overcast,350,2013-11-21 21:02:00
2:53 PM,12.9,7.0,77,30.61,8.0,North,19.6,-,0.00,,Overcast,350,2013-11-21 21:53:00
3:53 PM,12.9,6.1,74,30.63,5.0,North,23.0,-,0.00,Snow,Light Snow,350,2013-11-21 22:53:00
4:53 PM,12.9,6.1,74,30.67,9.0,North,23.0,-,0.00,,Overcast,350,2013-11-21 23:53:00
5:53 PM,12.9,6.1,74,30.71,10.0,North,19.6,-,N/A,,Overcast,350,2013-11-22 00:53:00
6:53 PM,12.9,7.0,77,30.74,10.0,North,17.3,-,N/A,,Overcast,350,2013-11-22 01:53:00
7:53 PM,14.0,9.0,80,30.76,6.0,NNW,11.5,-,0.00,Snow,Light Snow,330,2013-11-22 02:53:00
8:53 PM,14.0,9.0,80,30.75,10.0,NNW,12.7,-,0.00,,Mostly Cloudy,330,2013-11-22 03:53:00
9:53 PM,10.9,6.1,81,30.79,10.0,WNW,9.2,-,N/A,,Partly Cloudy,290,2013-11-22 04:53:00
10:53 PM,10.0,3.9,76,30.79,10.0,WNW,4.6,-,N/A,,Partly Cloudy,300,2013-11-22 05:53:00
11:53 PM,9.0,5.0,84,30.79,10.0,West,8.1,-,N/A,,Partly Cloudy,270,2013-11-22 06:53:00